Location: Anaheim
(33.8350°N, 117.9140°W)
Time: 23:23:25
(UTC-07:00)

Amateur Radio Satellites - All Passes

Search period start: 21 October 2014 22:53
Search period end: 22 October 2014 22:53
Location: Anaheim, 33.8350°N, 117.9140°W

Satellite Date Start Highest point End Downlink Frequencies (MHz)
Time Altitude Azimuth
FUNcube-1 21 Oct 23:09:25 23:13:31 32° 263° (W) 23:17:36 145.950 - 145.970 MHz USB
SO-50 21 Oct 23:18:28 23:23:20 75° 243° (WSW) 23:28:12 436.795 FM
UOSAT-12 21 Oct 23:22:03 23:23:54 12° 46° (NE) 23:25:45 437.025 FM, 437.400 FM
MaSat-1 21 Oct 23:39:03 23:42:38 25° 107° (ESE) 23:46:00 437.345 MHz
KITSAT 1 22 Oct 00:25:57 00:30:43 17° 258° (WSW) 00:35:28 435.175 FM
RS-15 22 Oct 00:44:30 00:53:54 32° 315° (NW) 01:03:21 29.354 - 29.394 USB, Beacon 29.352 USB
UOSAT-12 22 Oct 00:59:54 01:04:36 78° 243° (WSW) 01:09:12 437.025 FM, 437.400 FM
MaSat-1 22 Oct 01:14:54 01:18:17 23° 298° (WNW) 01:21:28 437.345 MHz
Oscar 10/S400 22 Oct 01:24:19 02:33:03 24° 245° (WSW) 05:26:04 145.825 - 145.975 CW/USB, Beacon 145.810 USB
Oscar 19 22 Oct 01:34:23 01:38:29 24° 96° (E) 01:42:33 437.125 CW, 437.150 USB
JAS-1B 22 Oct 01:41:34 01:47:31 31° 99° (E) 01:54:23 435.800 - 435.900 CW/SSB
AO-27 22 Oct 01:46:27 01:47:59 11° 92° (E) 01:49:30 436.795 MHz FM
Oscar 16 22 Oct 02:18:47 02:23:55 73° 102° (ESE) 02:29:00 437.025 USB, Beacon 2401.1428
Uribyol 2 22 Oct 02:32:56 02:37:47 39° 99° (E) 02:42:36 436.500 FM
ITAMSAT 1 22 Oct 02:38:05 02:43:01 41° 99° (E) 02:47:54 435.822 SSB
AO-Echo 22 Oct 02:38:56 02:44:11 59° 101° (E) 02:49:24 ?
Gurwin Techsat 1B 22 Oct 02:40:17 02:44:19 22° 95° (E) 02:48:19 435.225 FM
TMSAT-1 22 Oct 02:53:37 02:57:35 21° 95° (E) 03:01:32 436.925 FM
RS-15 22 Oct 03:09:24 03:11:31 11° 349° (N) 03:13:38 29.354 - 29.394 USB, Beacon 29.352 USB
Oscar 19 22 Oct 03:13:17 03:17:47 32° 290° (WNW) 03:22:17 437.125 CW, 437.150 USB
AO-27 22 Oct 03:22:41 03:27:53 68° 285° (WNW) 03:33:03 436.795 MHz FM
JAS-1B 22 Oct 03:31:52 03:38:03 42° 289° (WNW) 03:45:20 435.800 - 435.900 CW/SSB
AO-7 22 Oct 03:33:45 03:37:48 14° 92° (E) 03:41:50 29.400 - 29.500 MHz
Sapphire 22 Oct 03:51:36 03:56:28 36° 109° (ESE) 04:01:22 437.095 MHz 1200 baud AX-25 AFSK
Oscar 16 22 Oct 04:01:02 04:02:35 11° 297° (WNW) 04:04:08 437.025 USB, Beacon 2401.1428
Uribyol 2 22 Oct 04:13:06 04:16:57 21° 293° (WNW) 04:20:46 436.500 FM
PCSat 22 Oct 04:13:56 04:19:15 65° 113° (ESE) 04:24:38 145.825 MHz
ITAMSAT 1 22 Oct 04:18:25 04:22:10 20° 293° (WNW) 04:25:54 435.822 SSB
AO-Echo 22 Oct 04:19:24 04:22:24 15° 295° (WNW) 04:25:24 ?
Gurwin Techsat 1B 22 Oct 04:19:27 04:24:20 38° 289° (WNW) 04:29:11 435.225 FM
Uosat F 22 Oct 04:22:12 04:25:56 21° 95° (E) 04:29:38 435.120 FM
TMSAT-1 22 Oct 04:32:41 04:37:34 39° 289° (WNW) 04:42:26 436.925 FM
OPAL 22 Oct 04:53:33 04:58:34 54° 71° (ENE) 05:03:33 ?
JAS-2 22 Oct 05:01:03 05:06:24 20° 91° (E) 05:11:41 435.800 - 435.900 CW/SSB, 435.910 FM
AO-7 22 Oct 05:23:02 05:31:24 89° 108° (ESE) 05:39:45 29.400 - 29.500 MHz
RS-15 22 Oct 05:24:51 05:31:11 16° 28° (NNE) 05:37:36 29.354 - 29.394 USB, Beacon 29.352 USB
Sapphire 22 Oct 05:35:23 05:39:53 27° 305° (NW) 05:44:26 437.095 MHz 1200 baud AX-25 AFSK
Hamsat 22 Oct 05:55:16 05:58:39 23° 96° (E) 06:02:01 145.90 MHz
PCSat 22 Oct 05:59:50 06:03:08 16° 309° (NW) 06:06:26 145.825 MHz
Uosat F 22 Oct 06:00:09 06:04:45 37° 289° (WNW) 06:09:21 435.120 FM
STRAND 1 22 Oct 06:33:18 06:38:11 47° 73° (ENE) 06:43:07 ?
OPAL 22 Oct 06:34:49 06:37:40 15° 265° (W) 06:40:31 ?
JAS-2 22 Oct 06:44:05 06:51:50 74° 286° (WNW) 06:59:36 435.800 - 435.900 CW/SSB, 435.910 FM
Saudisat 1A 22 Oct 06:53:02 06:53:31 10° 107° (ESE) 06:54:01 436.775 MHz
AO-7 22 Oct 07:18:02 07:23:04 18° 305° (NW) 07:28:08 29.400 - 29.500 MHz
Hamsat 22 Oct 07:31:12 07:34:27 22° 289° (WNW) 07:37:43 145.90 MHz
PANSAT 22 Oct 07:34:03 07:35:52 13° 158° (SSE) 07:37:41 not established
RS-15 22 Oct 07:35:45 07:46:44 56° 56° (NE) 07:58:09 29.354 - 29.394 USB, Beacon 29.352 USB
SO-67 22 Oct 07:36:22 07:39:40 43° 99° (E) 07:42:58 435.3500 MHz FM
STRAND 1 22 Oct 08:14:27 08:17:34 16° 266° (W) 08:20:43 ?
Saudisat 1A 22 Oct 08:28:12 08:32:31 60° 301° (WNW) 08:36:52 436.775 MHz
JAS-2 22 Oct 08:32:19 08:35:36 13° 302° (WNW) 08:38:54 435.800 - 435.900 CW/SSB, 435.910 FM
PANSAT 22 Oct 09:12:09 09:15:30 29° 170° (S) 09:18:52 not established
HO-68 22 Oct 09:12:24 09:19:01 38° 99° (E) 09:25:35 435.675 MHz FM
Oscar 11 22 Oct 09:36:36 09:39:15 16° 94° (E) 09:41:52 145.825 FM, Beacon 2401.500 USB
RS-15 22 Oct 09:48:42 09:58:38 38° 253° (WSW) 10:08:59 29.354 - 29.394 USB, Beacon 29.352 USB
ZACube-1 22 Oct 10:17:42 10:20:41 19° 94° (E) 10:23:38 437.345 MHz
UKube-1 22 Oct 10:27:09 10:31:31 74° 102° (ESE) 10:35:52 145.840 MHz, 145.915 MHz
PANSAT 22 Oct 10:51:47 10:55:19 36° 183° (S) 10:58:51 not established
HO-68 22 Oct 11:00:12 11:06:33 35° 294° (WNW) 11:12:53 435.675 MHz FM
KITSAT 1 22 Oct 11:00:51 11:05:12 16° 101° (E) 11:09:32 435.175 FM
FUNcube-1 22 Oct 11:02:06 11:06:21 68° 101° (E) 11:10:29 145.950 - 145.970 MHz USB
MaSat-1 22 Oct 11:05:34 11:06:54 13° 255° (WSW) 11:08:12 437.345 MHz
Oscar 11 22 Oct 11:11:35 11:15:29 34° 287° (WNW) 11:19:22 145.825 FM, Beacon 2401.500 USB
Oscar 10/S400 22 Oct 11:33:18 11:58:28 30° 153° (SSE) 12:14:06 145.825 - 145.975 CW/USB, Beacon 145.810 USB
ZACube-1 22 Oct 11:53:27 11:57:04 28° 289° (WNW) 12:00:38 437.345 MHz
JAS-1B 22 Oct 12:27:03 12:29:59 14° 64° (ENE) 12:32:50 435.800 - 435.900 CW/SSB
PANSAT 22 Oct 12:32:03 12:35:05 22° 195° (SSW) 12:38:07 not established
Sapphire 22 Oct 12:44:37 12:47:32 14° 50° (NE) 12:50:27 437.095 MHz 1200 baud AX-25 AFSK
Oscar 19 22 Oct 12:47:43 12:51:49 24° 68° (ENE) 12:55:55 437.125 CW, 437.150 USB
KITSAT 1 22 Oct 12:51:26 12:59:32 86° 296° (WNW) 13:07:39 435.175 FM
AO-27 22 Oct 13:00:54 13:03:10 13° 63° (ENE) 13:05:26 436.795 MHz FM
PCSat 22 Oct 13:06:26 13:10:46 24° 54° (NE) 13:15:04 145.825 MHz
ISS 22 Oct 13:17:43 13:21:02 89° 136° (SE) 13:24:23 145.800 FM
SO-50 22 Oct 13:29:35 13:34:02 88° 299° (WNW) 13:38:37 436.795 FM
Oscar 16 22 Oct 13:31:46 13:36:55 71° 75° (ENE) 13:42:04 437.025 USB, Beacon 2401.1428
Uribyol 2 22 Oct 13:46:59 13:51:48 40° 71° (ENE) 13:56:40 436.500 FM
AO-Echo 22 Oct 13:48:13 13:52:49 47° 73° (ENE) 13:57:35 ?
ITAMSAT 1 22 Oct 13:52:17 13:57:09 42° 72° (ENE) 14:02:03 435.822 SSB
Gurwin Techsat 1B 22 Oct 13:57:45 14:01:56 24° 68° (ENE) 14:06:07 435.225 FM
TMSAT-1 22 Oct 14:10:46 14:14:52 24° 68° (ENE) 14:19:00 436.925 FM
JAS-1B 22 Oct 14:13:56 14:20:12 64° 258° (WSW) 14:25:53 435.800 - 435.900 CW/SSB
Sapphire 22 Oct 14:26:06 14:31:31 74° 246° (WSW) 14:36:54 437.095 MHz 1200 baud AX-25 AFSK
Oscar 19 22 Oct 14:26:20 14:30:57 33° 262° (W) 14:35:34 437.125 CW, 437.150 USB
AO-7 22 Oct 14:29:28 14:34:03 16° 55° (NE) 14:38:39 29.400 - 29.500 MHz
AO-27 22 Oct 14:36:53 14:42:03 67° 258° (WSW) 14:47:15 436.795 MHz FM
PCSat 22 Oct 14:49:14 14:54:17 41° 250° (WSW) 14:59:18 145.825 MHz
KITSAT 1 22 Oct 14:50:46 14:56:04 19° 316° (NW) 15:01:24 435.175 FM
ISS 22 Oct 14:56:51 14:58:09 12° 332° (NNW) 14:59:27 145.800 FM
UOSAT-12 22 Oct 15:07:01 15:11:36 80° 117° (ESE) 15:16:18 437.025 FM, 437.400 FM
Oscar 16 22 Oct 15:15:48 15:16:40 10° 269° (W) 15:17:33 437.025 USB, Beacon 2401.1428
Uribyol 2 22 Oct 15:27:37 15:31:22 20° 265° (W) 15:35:09 436.500 FM
AO-Echo 22 Oct 15:29:12 15:31:50 15° 268° (W) 15:34:32 ?
Uosat F 22 Oct 15:32:08 15:35:41 20° 67° (ENE) 15:39:15 435.120 FM
ITAMSAT 1 22 Oct 15:33:10 15:36:46 19° 266° (W) 15:40:23 435.822 SSB
Gurwin Techsat 1B 22 Oct 15:36:51 15:41:39 35° 262° (W) 15:46:29 435.225 FM
TMSAT-1 22 Oct 15:49:42 15:54:32 36° 262° (W) 15:59:24 436.925 FM
AO-7 22 Oct 16:17:21 16:25:38 85° 72° (ENE) 16:33:57 29.400 - 29.500 MHz
Hamsat 22 Oct 16:47:11 16:48:19 11° 67° (ENE) 16:49:26 145.90 MHz
UOSAT-12 22 Oct 16:50:39 16:52:20 12° 315° (NW) 16:54:01 437.025 FM, 437.400 FM
JAS-2 22 Oct 16:53:02 16:58:00 31° 66° (ENE) 17:03:30 435.800 - 435.900 CW/SSB, 435.910 FM
Saudisat 1A 22 Oct 16:58:38 17:02:40 34° 56° (NE) 17:06:41 436.775 MHz
OPAL 22 Oct 17:08:30 17:11:57 19° 97° (E) 17:15:22 ?
Uosat F 22 Oct 17:09:28 17:14:08 39° 261° (W) 17:18:51 435.120 FM
AO-7 22 Oct 18:14:36 18:19:09 16° 267° (W) 18:23:45 29.400 - 29.500 MHz
Hamsat 22 Oct 18:19:40 18:23:46 51° 260° (W) 18:27:53 145.90 MHz
JAS-2 22 Oct 18:37:58 18:42:58 32° 265° (W) 18:48:31 435.800 - 435.900 CW/SSB, 435.910 FM
Saudisat 1A 22 Oct 18:38:49 18:41:59 19° 250° (WSW) 18:45:07 436.775 MHz
OPAL 22 Oct 18:46:20 18:50:55 39° 290° (WNW) 18:55:29 ?
STRAND 1 22 Oct 18:48:33 18:52:32 22° 95° (E) 18:56:29 ?
SO-67 22 Oct 19:37:47 19:41:02 41° 261° (W) 19:44:19 435.3500 MHz FM
HO-68 22 Oct 19:38:34 19:43:24 20° 60° (ENE) 19:48:14 435.675 MHz FM
ISS 22 Oct 19:50:04 19:52:33 19° 33° (NNE) 19:55:02 145.800 FM
STRAND 1 22 Oct 20:27:05 20:31:44 35° 289° (WNW) 20:36:22 ?
KITSAT 1 22 Oct 20:49:54 20:56:20 25° 48° (NE) 21:02:43 435.175 FM
ZACube-1 22 Oct 21:12:06 21:13:34 11° 66° (ENE) 21:15:02 437.345 MHz
UKube-1 22 Oct 21:18:51 21:22:51 37° 72° (ENE) 21:26:53 145.840 MHz, 145.915 MHz
HO-68 22 Oct 21:23:16 21:30:22 70° 256° (WSW) 21:37:33 435.675 MHz FM
ISS 22 Oct 21:26:14 21:29:21 37° 228° (SW) 21:32:26 145.800 FM
FUNcube-1 22 Oct 21:54:22 21:58:31 35° 73° (ENE) 22:02:39 145.950 - 145.970 MHz USB
RS-15 22 Oct 21:54:25 22:04:57 52° 110° (ESE) 22:15:18 29.354 - 29.394 USB, Beacon 29.352 USB
Oscar 11 22 Oct 22:02:05 22:06:25 74° 258° (WSW) 22:10:45 145.825 FM, Beacon 2401.500 USB
SO-50 22 Oct 22:05:02 22:09:19 30° 54° (NE) 22:13:37 436.795 FM
